Flag for U.S.A. Weather past 2 weeks in Lexington-Fayette, Kentucky, U.S.A.

63 °F

Mostly cloudy.

Feels Like: 63 °F
Forecast: 57 / 72 °F
Wind: 14 mph from East

Location: Blue Grass Airport

Current Time: Oct 4, 2015 at 11:45:52 AM

Latest Report: Oct 4, 2015 at 10:54 AM

Visibility: 10 mi

Pressure: 30.02 "Hg

Humidity: 73%

Dew point: 54 °F

Location of Lexington-FayetteLocation

Historic Weather in Lexington-Fayette — Graph


Lexington-Fayette temperature yesterday

Maximum temperature yesterday: 54 °F (at 10:54 PM)
Minimum temperature yesterday: 47 °F (at 6:54 AM)
Average temperature yesterday: 50 °F

Past Weeks' High & Low Weather Summary

High85 °F (Sep 24, 1:54 PM)97% (Sep 29, 9:54 AM)30.23 "Hg (Sep 29, 9:54 AM)
Low47 °F (Oct 3, 6:54 AM)33% (Sep 21, 4:54 PM)29.81 "Hg (Sep 29, 5:54 PM)
Average64 °F76%30.05 "Hg
* Reported Sep 19 10:54 AM — Oct 4 10:54 AM, Lexington-Fayette, Weather by CustomWeather, © 2015

Note: Actual official high and low records may vary slightly from our data, if they occured in-between our weather recording intervals... More about our weather records


Lexington-Fayette weather history for previous 24 hours

Time TempWeatherWind HumidityBarometerVisibility
10:54 AM
Sun, Oct 4
63 °FMostly cloudy.14 mph73%30.02 "Hg10 mi
9:54 AM58 °FPassing clouds.15 mph84%30.02 "Hg10 mi
8:54 AM57 °FSunny.12 mph87%30.01 "Hg10 mi
7:54 AM54 °FPassing clouds.13 mph93%29.99 "Hg10 mi
6:54 AM54 °FPassing clouds.10 mph93%29.98 "Hg10 mi
5:54 AM55 °FPassing clouds.9 mph90%29.96 "Hg10 mi
4:54 AM56 °FMostly cloudy.8 mph90%29.96 "Hg10 mi
3:54 AM56 °FLow clouds.12 mph90%29.95 "Hg10 mi
2:54 AM55 °FLow clouds.9 mph93%29.95 "Hg10 mi
1:54 AM55 °FLow clouds.12 mph90%29.95 "Hg10 mi
12:54 AM55 °FLow clouds.9 mph90%29.95 "Hg10 mi
11:54 PM
Sat, Oct 3
54 °FLow clouds.10 mph93%29.95 "Hg10 mi
10:54 PM54 °FLow clouds.10 mph90%29.95 "Hg10 mi
9:54 PM53 °FLow clouds.12 mph93%29.95 "Hg10 mi
8:54 PM53 °FLight rain. Low clouds.15 mph89%29.94 "Hg10 mi
7:54 PM52 °FLow clouds.15 mph89%29.94 "Hg10 mi
6:54 PM52 °FLow clouds.13 mph89%29.94 "Hg10 mi
5:54 PM52 °FLow clouds.13 mph86%29.93 "Hg10 mi
4:54 PM52 °FLow clouds.12 mph86%29.93 "Hg10 mi
3:54 PM51 °FLow clouds.18 mph89%29.90 "Hg10 mi
2:54 PM51 °FLow clouds.17 mph86%29.92 "Hg10 mi
1:54 PM50 °FLow clouds.15 mph89%29.92 "Hg10 mi
12:54 PM50 °FLow clouds.15 mph89%29.94 "Hg10 mi
11:54 AM50 °FLight rain. Low clouds.17 mph86%29.94 "Hg10 mi
Weather by CustomWeather, © 2015

See weather overviewHow to use our weather pages